Regional Weather Roundup
Issued by NWS State College, PA

Home | Current Version | Previous Version | Text Only | Print | Product List | Glossary Off
Versions: 1 2 3 4 5 6 7 8 9 10 11 12 13 14 15 16 17 18 19 20 21 22 23 24 25 26 27 28 29 30 31 32 33 34 35 36 37 38 39 40 41 42 43 44 45 46 47 48 49 50

000
ASUS41 KCTP 071803
RWRCTP

REGIONAL WEATHER ROUNDUP
NATIONAL WEATHER SERVICE STATE COLLEGE PA
100 PM EST SUN FEB 07 2016

Note: "fair" indicates few or no clouds below 12,000 feet with no
significant weather and/or obstructions to visibility.

* = STATION THAT DOES NOT REPORT PRECIPITATION /E.G. RAIN...SNOW...ETC/
    THUNDER OR FOG.

PAZ002>004-007>009-013>016-020>023-029>032-071900-
WESTERN PENNSYLVANIA

CITY           SKY/WX    TMP DP  RH WIND       PRES   REMARKS
ERIE           CLOUDY    47  24  40 S13       29.95F
MEADVILLE      SUNNY     45  24  43 S6        29.96F
FRANKLIN*      SUNNY     45  25  45 S14       30.01F
NEW CASTLE     FAIR      48  25  40 S8        30.00F
BEAVER COUNTY  NOT AVBL
BUTLER*        SUNNY     46  23  39 SW9       30.05F
PITTSBURGH INT MOSUNNY   47  22  37 SW10      30.02F
PITTSBURGH     SUNNY     47  23  38 S8        30.02F
INDIANA*       SUNNY     45  25  45 VRB7      30.06F
LATROBE        MOSUNNY   45  23  42 S7        30.05F
WASHINGTON CO* SUNNY     48  23  37 SW7       30.03F
$$

PAZ004>006-010>012-017>019-024>028-033>037-041-042-045-046-049>053-071900-
CENTRAL PENNSYLVANIA

CITY           SKY/WX    TMP DP  RH WIND       PRES   REMARKS
BRADFORD       SUNNY     40  23  50 S9        29.99F
DUBOIS         SUNNY     42  22  44 SW7       30.00F
CLEARFIELD     SUNNY     43  24  47 VRB5      30.02F
JOHNSTOWN      CLOUDY    41  22  46 SW7       30.00F
ALTOONA        SUNNY     43  22  43 SW3       30.03F
STATE COLLEGE  SUNNY     45  23  42 SW9       30.04F
WILLIAMSPORT   SUNNY     44  19  36 VRB5      30.07F
SELINSGROVE    SUNNY     44  21  40 CALM      30.08F
FT INDIANTOWN  MOSUNNY   42  19  39 SW5       30.09F
CAPITAL CITY   MOSUNNY   43  17  35 CALM      30.10F
HARRISBURG     PTSUNNY   41  24  51 CALM      30.10F
YORK           CLOUDY    40  20  44 VRB3      30.10F
$$

PAZ038>040-043-044-047-048-054-055-060>062-067>071-071900-
EASTERN PENNSYLVANIA

CITY           SKY/WX    TMP DP  RH WIND       PRES   REMARKS
SCRANTON       SUNNY     43  21  41 CALM      30.05F
MOUNT POCONO   SUNNY     41  19  41 VRB3      30.02F
ALLENTOWN      MOSUNNY   46  21  37 CALM      30.10F
QUAKERTOWN*    CLOUDY    45  18  33 CALM      30.10F
READING        CLOUDY    45  17  32 CALM      30.09F
LANCASTER      PTSUNNY   41  25  53 CALM      30.10F
COATESVILLE    PTCLDY    43  21  42 N7        30.10F
POTTSTOWN      CLOUDY    44  18  35 CALM      30.11F
BLUE BELL        N/A     41  25  52 CALM      30.10F
DOYLESTOWN     CLOUDY    44  17  33 NE3       30.09F
WILLOW GROVE   NOT AVBL
NORTH PHILA    CLOUDY    46  22  38 E6        30.13F
PHILADELPHIA   CLOUDY    45  23  42 E5        30.12F
$$



USA.gov is the U.S. government's official web portal to all federal, state and local government web resources and services.